Location: Chenereilles
(45.4866°N, 4.0790°E)
Time: 02:50:07
(UTC+00:00)

Cosmos 2084 - Pass Details

Date: 12 November 2019
Orbit: 557 x 625 km, 62.8° (Epoch: 10 December)

Event Time Altitude Azimuth Distance (km) Brightness Sun altitude
Rises 17:25:08 0° 322° (NW) 2,838 7.3 -12.1°
Reaches altitude 10° 17:27:26 10° 326° (NNW) 1,921 6.4 -12.5°
Maximum altitude 17:31:44 61° 47° (NE) 663 3.4 -13.2°
Enters shadow 17:35:51 10° 128° (SE) 1,850 5.6 -13.9°
